{"data":{"norad_id":57112,"intl_designator":"2023-090M","name":"STARLINK-6141","alt_names":[],"object_type":"PAYLOAD","status":"ACTIVE","operator":null,"country":"US","launch_date":"2023-06-23","launch_site_code":"AFETR","launch_vehicle":null,"mission":null,"orbit_class":"UNKNOWN","rcs_meters":null,"size_class":null,"mass_kg":null,"dimensions":null,"purposes":["comms"],"wikipedia_slug":null,"has_3d_model":false,"image_url":null,"decayed_at":null,"tle_current":{"epoch":"2026-05-25T04:58:40.962720Z","epoch_age_seconds":50990,"freshness":"FRESH","line1":"1 57112U 23090M   26145.20741855  .00001970  00000+0  81127-4 0  9999","line2":"2 57112  43.0017 209.5169 0001156 277.2922  82.7798 15.27565531162032","mean_motion":15.27565531,"eccentricity":0.0001156,"inclination_deg":43.0017,"raan_deg":209.5169,"arg_perigee_deg":277.2922,"mean_anomaly_deg":82.7798,"bstar":8.1127e-5,"rev_number":16203,"period_min":94.267641602081,"perigee_km":482.29926365167,"apogee_km":483.88557989398,"semimajor_km":6861.2294217728,"source":"CELESTRAK","updated_at":"2026-05-25T13:38:18.241581Z"}}}